Miscellaneous Local Product
Issued by NWS Hastings, NE

Home | Current Version | Previous Version | Text Only | Print | Product List | Glossary Off
Versions: 1 2 3 4 5 6 7 8 9 10 11 12 13 14 15 16 17 18 19 20 21 22 23 24 25 26 27 28 29 30 31 32 33 34 35 36 37 38 39 40 41 42 43 44 45 46 47 48 49 50

084
AXUS43 KGID 201602
MISGRI

GID CWA HOURLY WEATHER ROUNDUP
NATIONAL WEATHER SERVICE HASTINGS NE
1100 AM CDT FRI OCT 20 2017

NOTE: "FAIR" INDICATES FEW OR NO CLOUDS BELOW 12,000 FEET WITH NO
SIGNIFICANT WEATHER AND/OR OBSTRUCTIONS TO VISIBILITY.

...SOUTH CENTRAL NEBRASKA...

CITY           SKY/WX    TMP DP  RH WIND       PRES   REMARKS
GRAND ISLAND   MOSUNNY   64  54  69 S23G31    29.81F
HASTINGS       CLOUDY    65  52  62 S18G28    29.82F
KEARNEY        MOSUNNY   66  53  63 S22       29.79F
ORD              N/A     64  51  62 S21G30    29.75F
YORK           CLOUDY    64  55  72 S21G28    29.85F
AURORA         CLOUDY    66  54  64 S16G23    29.82F
LEXINGTON      SUNNY     60  51  70 S12G17    29.76F
HOLDREGE       MOSUNNY   64  53  67 S23G32    29.77F
HEBRON         MOSUNNY   68  55  64 S16G25    29.86F

...NEBRASKA PANHANDLE...

CITY           SKY/WX    TMP DP  RH WIND       PRES   REMARKS
CHADRON        CLOUDY    68  38  33 SW9       29.59F
ALLIANCE       CLOUDY    55  45  68 S8        29.66F
SCOTTSBLUFF    CLOUDY    53  42  66 VRB6      29.66F
SIDNEY         CLOUDY    61  39  44 W6        29.69F

...WESTERN AND NORTH CENTRAL NEBRASKA...

CITY           SKY/WX    TMP DP  RH WIND       PRES   REMARKS
VALENTINE      CLOUDY    66  49  54 SW25      29.64F
AINSWORTH      SUNNY     63  51  65 S22G28    29.68F
ONEILL         CLOUDY    65  53  63 S20G25    29.73F
BROKEN BOW     SUNNY     62  51  67 S21G32    29.75F
IMPERIAL       CLOUDY    63  51  65 S17       29.70F
NORTH PLATTE   CLOUDY    59  50  72 SE8       29.72F
MCCOOK         MOSUNNY   63  51  65 S15G24    29.73F

...EASTERN NEBRASKA...

CITY           SKY/WX    TMP DP  RH WIND       PRES   REMARKS
NORFOLK        SUNNY     67  53  61 S18G24    29.79F
SO SIOUX CITY  SUNNY     67  55  65 S16G26    29.85F
TEKAMAH        CLOUDY    67  53  61 S16G22    29.88F
COLUMBUS       SUNNY     67  54  63 S16G22    29.84F
ALBION         MOSUNNY   66  53  63 S18G30    29.79F
OMAHA EPPLEY   CLOUDY    65  54  67 S17G23    29.92F
OFFUTT AFB     SUNNY     65  55  69 SE15      29.91F
MILLARD        SUNNY     67  56  68 S13G21    29.91F
LINCOLN        CLOUDY    67  55  65 S21       29.88F
NEBRASKA CITY  CLOUDY    67  56  69 S21G28    29.95F
BEATRICE       CLOUDY    67  56  68 S18       29.90F
FALLS CITY     CLOUDY    65  54  67 S16G24    29.97F

...NORTHERN KANSAS...

CITY           SKY/WX    TMP DP  RH WIND       PRES   REMARKS
GOODLAND       CLOUDY    60  53  77 S15G25    29.70F
HILL CITY      MOSUNNY   66  53  63 S21G35    29.78F
NORTON         MOSUNNY   66  48  52 S18       29.76F
PHILLIPSBURG   SUNNY     70  52  52 S17G26    29.79F
SMITH CENTER   SUNNY     66  54  63 S20G26    29.82F
HAYS           CLOUDY    69  54  58 S26G33    29.80F
RUSSELL        MOSUNNY   68  57  68 S28G38    29.82F
CONCORDIA      MOSUNNY   65  56  72 S21G38    29.88F
SALINA         SUNNY     70  59  68 S18G31    29.90F
TOPEKA         SUNNY     70  57  63 S18G24    30.00F



USA.gov is the U.S. government's official web portal to all federal, state and local government web resources and services.